Glasgow, MT

10:46 PM MDT on August 16, 2017 (GMT -0600)
Wokal-Glasgow International

Weather History for KGGW - October, 2013

Change the Weather History Date:

Friday, October 4, 2013

  Actual Average Record
Temperature  
Mean Temperature 40 °F 50 °F  
Max Temperature 51 °F 63 °F 96 °F (1943)
Min Temperature 28 °F 37 °F 11 °F (1898)
Degree Days  
Heating Degree Days 25 15  
Month to date heating degree days 74 58  
Since 1 July heating degree days 212 352  
Cooling Degree Days 0 0  
Month to date cooling degree days 0 0  
Year to date cooling degree days 563 532  
Moisture  
Dew Point 25 °F    
Average Humidity 59    
Maximum Humidity 85    
Minimum Humidity 33    
Precipitation  
Precipitation 0.00 in 0.03 in 1.29 in (1927)
Month to date precipitation 0.00 0.13  
Year to date precipitation 14.42 10.24  
Snow  
Snow 0.00 in 0.00 in 0.50 in (1916)
Month to date snowfall 0.0 0.1  
Since 1 July snowfall 0.0 0.3  
Since 1 September snowfall 0.0 0.3  
Snow Depth 0.00 in    
Sea Level Pressure  
Sea Level Pressure 30.46 in    
Wind  
Wind Speed 8 mph (NNE)    
Max Wind Speed 17 mph    
Max Gust Speed 23 mph    
Visibility 10 miles    
Events      
T = Trace of Precipitation, MM = Missing Value Source: NWS Daily Summary

Daily Weather History Graph

Daily Weather History Graph

Search for Another Location

Airport or City:

Trip Planner

Search our weather history database for the weather conditions in past years. The results will help you decide how hot, cold, wet, or windy it might be!

Date:

Astronomy

Oct. 04, 2013 Rise Set
Actual Time 7:10 AM MDT 6:38 PM MDT
Civil Twilight 6:39 AM MDT 7:09 PM MDT
Nautical Twilight 6:03 AM MDT 7:45 PM MDT
Astronomical Twilight 5:26 AM MDT 8:22 PM MDT
Moon 6:50 AM MDT (10/4) 6:19 PM MDT (10/4)
Length of Visible Light 12h 30m
Length of Day
11h 28m
Waning Crescent, 0% of the Moon is Illuminated
Oct 4
Waning Crescent
Oct 4
New
Oct 11
First Quarter
Oct 18
Full
Oct 26
Last Quarter

Hourly Weather History & Observations

Time (MDT) Temp. Windchill Dew Point Humidity Pressure Visibility Wind Dir Wind Speed Gust Speed Precip Events Conditions
12:53 AM 39.9 °F 36.7 °F 28.9 °F 65% 30.41 in 10.0 mi NNW 4.6 mph - N/A   Overcast
1:53 AM 39.9 °F 35.1 °F 28.9 °F 65% 30.42 in 10.0 mi North 6.9 mph - N/A   Overcast
2:53 AM 39.0 °F 34.8 °F 28.9 °F 67% 30.44 in 10.0 mi North 5.8 mph - N/A   Overcast
3:53 AM 37.0 °F 31.0 °F 28.9 °F 73% 30.45 in 10.0 mi North 8.1 mph - N/A   Scattered Clouds
4:53 AM 35.1 °F 28.6 °F 28.0 °F 76% 30.44 in 10.0 mi North 8.1 mph - N/A   Clear
5:53 AM 33.1 °F 26.1 °F 27.0 °F 78% 30.45 in 10.0 mi North 8.1 mph - N/A   Clear
6:53 AM 32.0 °F 25.6 °F 27.0 °F 82% 30.51 in 10.0 mi North 6.9 mph - N/A   Clear
7:53 AM 30.9 °F 25.2 °F 26.1 °F 82% 30.53 in 10.0 mi North 5.8 mph - N/A   Clear
8:53 AM 35.1 °F 29.3 °F 27.0 °F 72% 30.52 in 10.0 mi North 6.9 mph - N/A   Clear
9:53 AM 39.0 °F 31.0 °F 26.1 °F 60% 30.51 in 10.0 mi North 13.8 mph - N/A   Clear
10:53 AM 41.0 °F 35.8 °F 26.1 °F 55% 30.54 in 10.0 mi NE 8.1 mph - N/A   Partly Cloudy
11:53 AM 43.0 °F 37.7 °F 25.0 °F 49% 30.51 in 10.0 mi NNE 9.2 mph - N/A   Clear
12:53 PM 46.0 °F 41.4 °F 25.0 °F 44% 30.50 in 10.0 mi NNE 9.2 mph 17.3 mph N/A   Clear
1:53 PM 48.0 °F - 24.1 °F 39% 30.47 in 10.0 mi NE 15.0 mph 20.7 mph N/A   Clear
2:53 PM 48.9 °F - 23.0 °F 36% 30.45 in 10.0 mi NNE 12.7 mph 20.7 mph N/A   Clear
3:53 PM 50.0 °F - 23.0 °F 35% 30.45 in 10.0 mi NNE 12.7 mph - N/A   Clear
4:53 PM 50.0 °F - 24.1 °F 36% 30.44 in 10.0 mi NNE 9.2 mph - N/A   Clear
5:53 PM 48.0 °F - 23.0 °F 37% 30.43 in 10.0 mi NE 8.1 mph - N/A   Clear
6:53 PM 42.1 °F 37.7 °F 23.0 °F 47% 30.44 in 10.0 mi ENE 6.9 mph - N/A   Clear
7:53 PM 39.0 °F 33.4 °F 23.0 °F 53% 30.45 in 10.0 mi NE 8.1 mph - N/A   Clear
8:53 PM 35.1 °F 30.1 °F 23.0 °F 61% 30.44 in 10.0 mi ENE 5.8 mph - N/A   Clear
9:53 PM 33.1 °F 26.1 °F 21.9 °F 64% 30.43 in 10.0 mi East 8.1 mph - N/A   Clear
10:53 PM 30.9 °F 25.2 °F 21.9 °F 69% 30.41 in 10.0 mi East 5.8 mph - N/A   Clear
11:53 PM 34.0 °F - 21.9 °F 61% 30.39 in 10.0 mi Calm Calm - N/A   Clear